Regional Weather Roundup
Issued by NWS

Home | Current Version | Previous Version | Text Only | Print | Product List | Glossary On
Versions: 1 2 3 4 5 6 7 8 9 10 11 12 13 14 15 16 17 18 19 20 21 22 23 24 25 26 27 28 29 30 31 32 33 34 35 36 37 38 39 40 41 42 43 44 45 46 47 48 49 50
000
ASUS43 KDTX 102310
RWRMI
MICHIGAN HOURLY REGIONAL WEATHER ROUNDUP
NATIONAL WEATHER SERVICE DETROIT/PONTIAC MI
600 PM EST SUN DEC 10 2017

NOTE: "FAIR" INDICATES FEW OR NO CLOUDS BELOW 12,000 FEET WITH NO
SIGNIFICANT WEATHER AND/OR OBSTRUCTION TO VISIBILITY.

MIZ047>049-052>055-059>063-066>070-074>076-081>083-110000-
SOUTHEAST LOWER MICHIGAN

CITY           SKY/WX    TMP DP  RH WIND       PRES   REMARKS
ADRIAN         CLOUDY    27  20  75 SW8       29.94R WCI  19
ALMA           CLOUDY    26  26  98 SW5       29.91R WCI  21
ANN ARBOR      CLOUDY    26  19  74 S8        29.91R WCI  18
BAD AXE        FLURRIES  25  22  89 SW9       29.87R WCI  15
CARO           LGT SNOW  25  23  93 SW6       29.88R WCI  18
DETROIT CITY   CLOUDY    27  19  72 SW12      29.93R WCI  17
DETROIT        FLURRIES  28  20  71 SW12      29.94R WCI  18
FLINT          CLOUDY    24  21  88 SW7       29.90R WCI  16
GROSSE ILE     CLOUDY    28  20  72 SW8       29.93R WCI  20
HILLSDALE      CLOUDY    28  19  69 SW8       29.89S WCI  20
HOWELL         CLOUDY    26  22  85 W12       29.89R WCI  16

CITY           SKY/WX    TMP DP  RH WIND       PRES   REMARKS
JACKSON        CLOUDY    27  19  72 SW10      29.90R WCI  17
LAMBERTVILLE   CLOUDY    28  20  71 SW5       29.95R WCI  23
LANSING        CLOUDY    26  21  81 W9        29.91R WCI  17
LAPEER         CLOUDY    26  22  85 W6        29.89R WCI  19
MASON          CLOUDY    28  19  71 SW6       29.90R WCI  21
MONROE         CLOUDY    28  20  71 SW6       29.94R WCI  22
MT. CLEMENS    FLURRIES  27  20  74 SW12      29.90R WCI  17
PONTIAC        FLURRIES  25  22  88 SW9       29.89R WCI  15
PORT HOPE        N/A     27  23  85 SW6       29.84R WCI  20
PORT HURON     FLURRIES  25  19  80 SW5       29.91R WCI  19
TRI CITIES     LGT SNOW  27  26  96 W8        29.90R FOG     WCI  19
MIDLAND        FLURRIES  27  26  94 SW3       29.89R
TROY           CLOUDY    27  21  76 SW9       29.93R WCI  18
SAGINAW HB     LGT SNOW  27  25  93 SW8       29.89R WCI  18
$$
MIZ043>046-050>051-056>058-064>065-071>073-077>080-110000-
SOUTHWEST LOWER MICHIGAN

CITY           SKY/WX    TMP DP  RH WIND       PRES   REMARKS
BATTLE CREEK   CLOUDY    28  22  78 W8        29.91R WCI  20
BENTON HARBOR  CLOUDY    32  24  72 NW8       29.95R WCI  25
BIG RAPIDS     CLOUDY    25  20  81 W5        29.89R WCI  19
COLDWATER      CLOUDY    28  21  74 SW7       29.92R WCI  21
FREMONT        CLOUDY    26  21  82 N5        29.93R WCI  20
HOLLAND        CLOUDY    31  23  72 NW10      29.94R WCI  22
GRAND RAPIDS   CLOUDY    28  25  88 NW9       29.92R WCI  19
IONIA          CLOUDY    27  23  87 W5        29.91R WCI  21
KALAMAZOO      CLOUDY    29  22  75 W5        29.92R WCI  24
LUDINGTON      CLOUDY    29  19  68 NW5       29.92R WCI  23
MARSHALL       CLOUDY    27  20  75 SW7       29.91R WCI  20
MOUNT PLEASANT FLURRIES  28  24  85 W5        29.89R WCI  22
MUSKEGON       CLOUDY    29  19  66 N9        29.95R WCI  20
SOUTH HAVEN    CLOUDY    32  25  73 NW7G16    29.94R WCI  26
$$
MIZ016>042-110000-
NORTHERN LOWER MICHIGAN

CITY           SKY/WX    TMP DP  RH WIND       PRES   REMARKS
ALPENA         MOCLDY    22  14  71 NW12      29.87R WCI  10
BEAVER ISLAND  CLOUDY    19  10  69 N12G24    29.96R WCI   6
BELLAIRE       CLOUDY    24  18  79 N7        29.92R WCI  16
CADILLAC       CLOUDY    23  19  85 W5        29.85R WCI  17
CHARLEVOIX     CLOUDY    23  15  71 NW16      29.95R WCI  10
FRANKFORT      FLURRIES  29  21  71 N9G18     29.93R WCI  20
GAYLORD        FLURRIES  19  14  81 VRB5      29.85R WCI  12
GRAYLING       CLOUDY    23  17  77 N8        29.86R WCI  14
HARBOR SPRINGS CLOUDY    20  11  68 NW14G21   29.91R WCI   6
HOUGHTON LAKE  FLURRIES  24  20  84 NW12G18   29.85R WCI  13
MANISTEE       LGT SNOW  28  21  74 N13G20    29.93R WCI  18
OSCODA         FLURRIES  26  22  82 NW8       29.85R WCI  18
PELLSTON       CLOUDY    18  10  71 NW17      29.93R WCI   3
ROGERS CITY    FLURRIES  21  13  70 W12G22    29.89R WCI   9
TRAVERSE CITY  FLURRIES  26  19  74 N13G21    29.91R WCI  15
$$
MIZ007>008-015-110000-
EASTERN UPPER MICHIGAN

CITY           SKY/WX    TMP DP  RH WIND       PRES   REMARKS
KINROSS        FLURRIES  13   5  70 N10       29.91R WCI   0
MACKINAC ISLAN MOCLDY    16   5  62 NW15G25   29.92R WCI   1
NEWBERRY       CLOUDY    13   8  81 NW6       29.94R WCI   4
S. S. MARIE    CLEAR     11   0  61 N7        29.92R WCI   0
MUNISING         N/A     21  15  78 N16       29.97R WCI   7
$$
MIZ004>006-011>014-085-110000-
CENTRAL UPPER MICHIGAN

CITY           SKY/WX    TMP DP  RH WIND       PRES   REMARKS
MANISTIQUE     CLOUDY    16   4  59 N9        29.97R WCI   4
ESCANABA       CLOUDY    18   9  68 NW8G18    30.00R WCI   8
MENOMINEE      FLURRIES  24  16  71 N8        30.00R WCI  15
SAWYER-GWINN   CLOUDY    14   7  73 NW12      29.97R WCI   0
$$
MIZ001>003-009>011-084-110000-
WESTERN UPPER MICHIGAN

CITY           SKY/WX    TMP DP  RH WIND       PRES   REMARKS
IRON MOUNTAIN  CLOUDY    18  10  71 NW15      29.96R WCI   4
HOUGHTON       CLOUDY    13   4  67 NW7       29.98R WCI   3
COPPER HARBOR    N/A     16   9  74 N17G26    30.01R WCI   0
IRONWOOD       CLOUDY    18  11  74 NW8       30.01R WCI   8
$$

ABBREVIATIONS USED IN REMARKS
   TC - TEMPERATURE IN CELSIUS
  WCI - WIND CHILL INDEX
   HX - HEAT INDEX
  VSB - VISIBILITY





USA.gov is the U.S. government's official web portal to all federal, state and local government web resources and services.